Regional Weather Roundup
Issued by NWS Binghamton, NY

Home | Current Version | Previous Version | Text Only | Print | Product List | Glossary On
Versions: 1 2 3 4 5 6 7 8 9 10 11 12 13 14 15 16 17 18 19 20 21 22 23 24 25 26 27
000
ASUS41 KBGM 180410
RWRBGM
RWRBGM
BINGHAMTON REGIONAL WEATHER ROUNDUP
NATIONAL WEATHER SERVICE BINGHAMTON NY
1200 AM EDT FRI APR 18 2014

Note: "fair" indicates few or no clouds below 12,000 feet with no
significant weather and/or obstructions to visibility.

* = Station(s) that does not report precipitation, such as rain,
snow, etc, also no thunder or fog.

!NYZ009-015>018-022>025-036-037-044>046-055>057-062-180500
...CENTRAL NEW YORK...

CITY           SKY/WX    TMP DP  RH WIND       PRES   REMARKS
BINGHAMTON     CLEAR     38  24  57 S10       30.49R WCI  31
CORTLAND       FAIR      41  27  56 S12       30.49S
DANSVILLE      CLEAR     45  27  49 SE8       30.43S
ELMIRA         CLEAR     35  25  66 CALM      30.47F
ITHACA         CLEAR     41  27  57 S14       30.48F
HAMILTON       CLEAR     41  25  52 S12       30.50
MONTICELLO     CLEAR     32  21  64 SE6       30.56S WCI  26
NORWICH        CLEAR     37  25  60 S5        30.52S WCI  34
ONEONTA        CLEAR     34  18  51 CALM      30.50S
PENN YAN       CLEAR     43  27  53 S8        30.44S
ROME           CLEAR     38  21  50 SE8       30.53S WCI  32
SIDNEY         CLEAR     39  28  65 S3        30.53S
SYRACUSE       PTCLDY    42  22  44 E10       30.48S
$$

!PAZ038>040-043-044-047-048-072-180500
...NORTHEAST PENNSYLVANIA...

CITY           SKY/WX    TMP DP  RH WIND       PRES   REMARKS
SCRANTON       CLEAR     37  25  61 S7        30.54S WCI  32
TOWANDA*       CLEAR     41  25  52 S6        30.52S
$$
&&
KEY
WCI = WIND CHILL INDEX
VSB = VISIBILITY
HX  = HEAT INDEX
$$



USA.gov is the U.S. government's official web portal to all federal, state and local government web resources and services.